Other Public Products
Issued by NWS Grand Forks, ND

Home | Current Version | Previous Version | Text Only | Print | Product List | Glossary Off
Versions: 1 2 3 4 5 6 7 8 9 10 11 12 13 14 15 16 17 18 19 20 21 22 23 24 25 26 27 28 29 30 31 32 33 34 35 36 37 38 39 40 41 42 43 44 45 46 47 48 49 50

000
FPUS83 KFGF 290231
OPUFGF
PRAIRIE TO PINES WEATHER ROUNDUP
NATIONAL WEATHER SERVICE EASTERN NORTH DAKOTA/GRAND FORKS ND
900 PM CDT FRI APR 28 2017

 **SATELLITE DATA USED TO AUGMENT SKY COVER AT AUTOMATED STATIONS**
 *****  WEATHER ACROSS EASTERN NORTH DAKOTA  *****

CITY           SKY/WX    TMP DP  RH WIND       PRES   REMARKS
GRAND FORKS    FAIR      44  28  53 NW7       30.12R
GRAND FORKS AF FAIR      41  29  60 N6        30.13R
GRAND CITY NWS NOT AVBL
BUXTON           N/A     44  26  49 NW7         N/A
DEVILS LAKE    FAIR      47  21  35 NE6       30.12R
FARGO          FAIR      46  26  45 N5        30.11R
WAHPETON ARPT  FAIR      45  23  42 N8        30.13R
$$

 *****  WEATHER ACROSS CENTRAL AND WESTERN NORTH DAKOTA  *****

CITY           SKY/WX    TMP DP  RH WIND       PRES   REMARKS
JAMESTOWN      FAIR      43  27  53 N7        30.11R
BISMARCK       FAIR      51  15  23 NE5       30.14R
MINOT          FAIR      48  19  31 CALM      30.11R
MINOT AFB      FAIR      52  20  28 CALM      30.10R
GARRISON         N/A     41  19  41 SW7       30.12R
WILLISTON      FAIR      52  20  28 S5        30.11R
DICKINSON      FAIR      46  14  27 SE5       30.11R
HETTINGER      FAIR      45  20  36 SE7       30.14R
$$

 *****  OTHER OBSERVATIONS NORTHEAST NORTH DAKOTA  *****

CITY           SKY/WX    TMP DP  RH WIND       PRES   REMARKS
WALHALLA       NOT AVBL
LANGDON        FAIR      39  21  48 NE8       30.13R
CAVALIER       FAIR      43  18  36 NW6       30.13R
GRAFTON        FAIR      41  23  48 NW6       30.16R
CANDO          NOT AVBL
FORT TOTTEN      N/A     48  10  21 CALM      29.95S
ROLLA          FAIR      43  14  31 NW7       30.13R
RUGBY          NOT AVBL
 ***** THE ABOVE OBSERVATIONS ARE NON NWS ARE NOT QUALITY
        CONTROLLED AND MAY MIS-REPORT RAIN FOR SNOW...
$$

 *****  OTHER OBSERVATIONS SOUTHEAST NORTH DAKOTA *****

CITY           SKY/WX    TMP DP  RH WIND       PRES   REMARKS
COOPERSTOWN    FAIR      43  27  52 NE7       30.14R
VALLEY CITY    FAIR      43  18  36 N3        30.13R
OAKES          NOT AVBL
GWINNER        CLEAR     45  30  57 MISG      30.12R
SHEYENNE NWR     N/A     46  16  30 NE5       29.95S
BUFFALO          N/A     40  16  37 S6          N/A
WYNDMERE         N/A     43  28  56 N3          N/A
 ***** THE ABOVE OBSERVATIONS ARE NON NWS ARE NOT QUALITY
       CONTROLLED AND MAY MIS-REPORT RAIN FOR SNOW...
$$

  *****  WEATHER ACROSS NORTHERN MINNESOTA  *****

CITY           SKY/WX    TMP DP  RH WIND       PRES   REMARKS
FLAG ISLAND    FAIR      39  23  52 SW3       30.09R
WARROAD        FAIR      37  25  60 CALM      30.11R
ROSEAU         FAIR      39  18  41 NW6       30.11R
HALLOCK        FAIR      43  16  33 NW5       30.12R
THF RVR FALLS  FAIR      44  17  33 CALM      30.12R
HALSTAD          N/A     42  28  58 N8          N/A
FOSSTON        FAIR      34  19  55 CALM      30.12R
BAUDETTE       FAIR      37  20  50 CALM      30.08R
WASKISH        FAIR      34  27  75 CALM      30.11R
CROOKSTON      FAIR      45  28  53 CALM      30.13R
$$
  *****  WEATHER ACROSS CENTRAL AND WEST MINNESOTA  *****

CITY           SKY/WX    TMP DP  RH WIND       PRES   REMARKS
BEMIDJI        FAIR      39  16  39 CALM      30.10R
PARK RAPIDS    FAIR      39  19  44 NW8       30.08R
WADENA         FAIR      39  21  48 NW6       30.10R
DETROIT LAKES  FAIR      43  23  45 N3        30.12R
MOORHEAD       FAIR      43  27  52 N5        30.13R
FERGUS FALLS   FAIR      39  23  52 N7        30.11R
ELBOW LAKE     FAIR      41  26  53 N6        30.11R
MORRIS MN      FAIR      43  25  49 N9        30.10R
STAPLES        FAIR      41  14  33 N3        30.09R
WHEATON        FAIR      45  23  42 N3        30.14R
$$
  *****  WEATHER ELSEWHERE ACROSS MINNESOTA  *****

CITY           SKY/WX    TMP DP  RH WIND       PRES   REMARKS
DULUTH         FAIR      39  26  59 N6        30.05R
INTRNTL FALLS  FAIR      32  22  66 CALM      30.07R
ELY            FAIR      28  25  86 CALM      30.08R
CLOQUET        FAIR      39  21  48 N3        30.08R
BRAINERD       FAIR      42  19  39 N7        30.07R
HIBBING        FAIR      32  23  69 N3        30.07R
ALEXANDRIA     FAIR      44  22  41 NW9       30.09R
SAINT CLOUD    FAIR      43  26  51 N6        30.06R
MINNEAPOLIS    MOCLDY    47  27  45 N3        30.07R
$$

  *****  WEATHER ACROSS SOUTH DAKOTA  *****

CITY           SKY/WX    TMP DP  RH WIND       PRES   REMARKS
SIOUX FALLS    FAIR      41  31  67 NE7       30.07R
BROOKINGS      FAIR      43  24  47 NE8       30.07R
WATERTOWN      FAIR      42  19  39 NE10      30.06R
HURON          FAIR      42  21  43 NE7       30.10R
SISSETON         N/A     42  23  46 NE10      30.09R
ABERDEEN       FAIR      44  22  41 NE6       30.10R
MITCHELL       FAIR      43  25  49 NE8       30.10R
PIERRE         FAIR      45  18  34 E5        30.11R
MOBRIDGE       FAIR      47  13  25 NE8       30.09R
RAPID CITY     FAIR      40  28  62 NE6       30.12R
$$

  *****  SOME WEATHER IN NEARBY STATES *****

CITY           SKY/WX    TMP DP  RH WIND       PRES   REMARKS
GLASGOW MT     MOCLDY    49  34  56 N16       30.10R
GREAT FALLS MT MOCLDY    42  35  76 SE7       30.14R
CHEYENNE WY    CLOUDY    27  25  92 NE16G23   30.01R WCI  15
SCOTTSBLUFF NE LGT SNOW  34  31  88 N10       30.09R FOG
OMAHA NE       CLOUDY    43  37  79 NE8       30.00R
DES MOINES IA  CLOUDY    45  39  79 NE15      29.97R
DAVENPORT IA   CLOUDY    46  44  93 NE14      29.92R
CHICAGO IL     CLOUDY    50  42  74 NE9       29.94R
EAU CLAIRE WI  FAIR      44  30  57 NW3       30.04R
LA CROSSE WI   CLOUDY    47  33  58 NW3       30.04R
$$

  *****  SOME NATIONAL WEATHER *****

CITY           SKY/WX    TMP DP  RH WIND       PRES   REMARKS
LA GUARDIA NY  MOCLDY    78  44  29 S7        30.03R
RALEIGH NC     FAIR      80  65  59 SW12      30.08R
ATLANTA GA     MOCLDY    77  67  71 SE6       30.08R
NEW ORLEANS LA FAIR      78  74  87 SE14      29.92R
OKLAHOMA CITY  CLOUDY    70  62  76 E9        29.66R
ALBUQUERQUE NM CLOUDY    40  38  93 SE5       29.78R
SALT LAKE CITY CLOUDY    45  35  68 NW16      29.96R
LOS ANGELES CA FAIR      75  30  19 NW15      29.75S
BOISE ID       FAIR      55  28  35 NW25G31   30.08R
SEATTLE WA     PTSUNNY   58  36  43 W6        30.32S
$$

*** WEATHER ACROSS MANITOBA...SASKATCHEWAN AND ONTARIO ***
                ***ONTARIO***

CITY           SKY/WX    TMP DP  RH WIND       PRES   REMARKS
GERALDTON      FLURRIES  28  23  80 NW16G29   29.88R WCI  17
THUNDER BAY    MOCLDY    34  23  64 NW6       30.05R
SIOUX LOOKOUT  CLOUDY    30  25  80 CALM      30.04R
TORONTO        MOCLDY    59  43  55 SW9       29.96S
BIG TROUT LK   PTCLDY    32   9  37 N8        29.98R WCI  25
PICKLE LAKE    MOCLDY    30  21  69 NW3       29.99R
DRYDEN         MOCLDY    37  18  44 N3        30.05R
KENORA         MOCLDY    41  14  33 NW3       30.07R
$$
                *** MANITOBA***

CITY           SKY/WX    TMP DP  RH WIND       PRES   REMARKS
BRANDON        PTCLDY    41  16  36 E8        30.12R
DAUPHIN        CLEAR     41  12  30 SE5       30.13R
ISLAND LAKE    MOCLDY    37  10  32 N6        30.10R
PILOT MOUND      N/A     43  21  42 NE8         N/A
THE PAS        PTCLDY    45  12  26 NE2       30.12R
THOMPSON       MOCLDY    39  23  52 N10       30.14R
WINNIPEG       PTCLDY    39  14  35 NE7       30.13R
LYNN LAKE      PTCLDY    41  23  48 SE3       30.15R
CHURCHILL      MOCLDY    18  14  86 N23       30.27R WCI   0
GILLAM         CLOUDY    25  21  86 N14       30.19R WCI  13
$$
                ***SASKATCHEWAN***

CITY           SKY/WX    TMP DP  RH WIND       PRES   REMARKS
ESTEVAN        PTCLDY    50  27  40 SE6       30.10R
KINDERSLEY     PTCLDY    37  32  81 N13       30.08S
LLOYDMINSTER   MOCLDY    45  23  42 NW2       30.07R
PRINCE ALBERT  MOCLDY    46  19  34 E7        30.05R
REGINA         MOCLDY    45  34  65 NW13      30.09R
YORKTON        CLEAR     48  23  37 E8        30.06R


USA.gov is the U.S. government's official web portal to all federal, state and local government web resources and services.